map of MEA home
Great Circle Mapper logo
MEA - Airport
Location
City:  Macaé, Rio de Janeiro, Brazil
ICAO / IATA:SBME / MEA

Details
Type:Airport (Aerodrome, Airfield)
Latitude:22°20'35"S (-22.343030)
Longitude:41°45'58"W (-41.766032)
Datum:WGS 1984
Elevation:8 ft (2 m)
Variation:23.09°W (WMM2015 magnetic declination)
-0.09° annual change
Runways:1
Longest:3937 × 98 ft (1200 × 30 m), paved

Time
Time Zone:UTC-3 (DST-2)
Local Time:

Weather
METAR:SBME 310800Z 03002KT 0800 FG BKN002 20/20 Q1016
TAF:SBME 310430Z 3106/3118 03008KT CAVOK TN19/3108Z TX36/3117Z
BECMG 3109/3112 33010KT
BECMG 3113/3116 10015KT
RMK PHC

Related Locations
Nearby:
Farthest:IWO: 12181 mi / 19604 km
Iwo Jima [Iwo Jima AB], Iwo Jima Island, JP

Find:

   beyond  
but within

Other Information
Maps:
NOTAMs:
Links:
Sources:

  
flag of Brazil
flag of Rio de Janeiro
  

Sectional Chart

Flight Planning
at skyvector.com

Satellite Image

Google Maps Satellite view

 

Copyright © 2004-2015 Karl L. Swartz. All rights reserved.
The Great Circle Mapper name and logo are trademarks of the Great Circle Mapper.
All other trademarks mentioned herein belong to their respective owners.
Please see credits for attibutions and further copyright information.

  Follow gcmap on Facebook Follow gcmap on Twitter Follow gcmap on Google+

hCard Microformat

Geo Microformat